SCP
0 0 0 0 0 0 0 0 0 0 0 0 0 -0 0 0 0 0 0 -0 0 0 0 0 0 -0 -0 -0 0 0 0 0 0 0 0 0 0 0 0 -0 -0 -0 0 0 0 0 0 0 0
0 0 0 0 0 0 0 0 0 0 0 0 -0 0 0 0 0 0 0 0 0 -0 0 -0 0 -0 -0 -0 0 0 0 0 0 0 0 0 0 0 0 -0 -0 -0 -0 0 0 0 0 0 0
0 0 0 0 0 0 0 0 0 0 0 0 0 0 0 0 0 0 0 0 0 0 0 0 -0 -0 -0 -0 0 0 0 0 0 0 0 0 0 0 0 0 -0 -0 -0 0 0 0 0 0 0
0 0 0 0 0 0 0 0 -0 -0 0 0 -0 0 0 0 0 -0 0 0 0 0 0 0 0 -0 0 -0 -0 0 0 0 -0 -0 0 -0 -0 -0 0 0 -0 -0 0 0 0 0 0 0 0
0 0 0 0 0 0 0 0 -0 -0 0 0 0 0 0 0 0 0 0 0 0 0 0 1 0 0 0 -0 -0 -0 0 0 -0 -0 -0 -0 -0 -0 -0 -0 -0 -0 0 0 0 0 0 0 0
0 0 0 0 0 0 0 0 0 -0 -0 0 0 0 0 0 0 0 0 0 0 0 0 1 0 0 0 0 0 -0 -0 -0 -0 -0 -0 -0 -0 -0 -0 -0 0 0 0 0 0 0 0 0 0
0 0 0 0 0 0 0 0 0 -0 0 0 -0 0 0 0 0 0 0 0 0 0 1 2 2 1 0 0 0 0 0 0 0 -0 -0 -0 -0 -0 0 0 0 0 0 0 0 0 0 0 0
0 0 0 0 0 0 0 0 0 0 -0 0 0 0 0 0 0 0 0 0 0 1 1 2 3 2 1 1 0 0 0 0 0 0 0 -0 0 0 0 0 0 0 0 0 0 0 0 0 0
0 0 0 0 0 0 -0 0 0 0 0 0 0 0 0 0 0 0 0 1 1 1 1 1 2 2 1 1 1 1 0 0 0 0 0 0 -0 -0 -0 0 0 0 0 0 -0 0 0 0 0
0 0 0 0 0 0 -0 0 0 0 0 0 0 0 0 0 0 0 0 1 1 1 1 1 1 2 2 2 2 1 1 1 0 0 0 0 -0 -0 -0 0 0 0 0 0 -0 -0 -0 0 0
0 0 0 0 0 0 0 0 0 0 0 0 0 0 0 0 0 0 0 0 0 0 1 1 1 1 2 2 2 1 1 1 0 0 0 0 0 -0 -0 -0 0 0 0 0 0 0 0 0 0
0 0 0 0 0 0 0 0 0 0 0 0 0 0 0 0 0 0 0 0 0 0 1 1 1 1 1 2 2 1 1 1 0 0 0 0 0 0 -0 0 0 0 0 0 0 0 0 0 0
0 0 0 0 0 0 0 0 0 0 0 0 0 0 0 0 0 0 0 0 0 0 0 0 0 1 0 1 2 1 1 1 0 0 0 0 0 0 0 0 0 0 0 0 0 0 0 0 0
0 0 0 0 0 0 0 0 0 0 0 0 0 0 0 0 0 0 0 0 0 0 0 0 1 0 1 1 1 1 1 1 1 0 0 0 0 0 0 0 0 0 0 0 0 0 0 0 0
0 0 0 0 0 0 0 0 0 0 -0 0 0 0 0 0 0 0 0 0 0 0 0 0 0 2 1 2 2 1 1 1 1 1 0 0 0 0 0 0 0 0 0 0 0 0 0 0 0
0 0 0 0 0 0 0 0 0 0 0 0 0 0 0 0 0 0 0 0 0 0 0 0 0 1 3 4 2 1 1 1 1 1 1 1 1 1 1 0 0 0 0 0 0 0 0 0 0
0 0 0 0 0 0 0 0 0 0 0 0 0 0 0 0 0 0 0 0 0 0 0 0 0 1 3 2 2 1 1 1 1 1 1 1 1 1 1 1 1 0 0 0 0 0 0 0 0
0 0 0 0 0 0 0 0 -0 -0 0 0 0 0 0 0 0 0 0 0 0 0 0 0 0 0 0 1 0 1 1 1 2 1 0 1 1 1 1 1 1 1 0 0 0 0 0 0 0
0 0 0 0 0 0 0 0 0 0 0 0 0 0 0 0 0 0 0 0 0 0 0 0 0 0 0 0 1 0 0 2 1 2 1 1 0 1 2 2 2 1 0 0 0 0 0 0 0
0 0 0 0 0 0 0 0 0 0 0 0 0 0 0 0 0 0 0 0 0 0 0 0 0 0 0 0 0 0 0 0 1 0 0 0 1 0 1 2 1 1 1 0 0 0 0 0 0
0 0 0 0 0 0 0 0 0 -0 0 0 0 0 0 0 0 0 0 0 0 0 0 0 0 0 0 0 0 0 0 0 0 0 0 0 0 0 1 1 2 1 1 1 1 0 0 0 0
0 0 0 0 0 0 0 0 0 0 -0 0 0 0 0 0 0 0 0 0 0 0 0 0 0 0 0 0 0 0 0 0 0 0 0 0 0 0 0 1 1 1 1 1 0 1 0 0 0
0 0 0 0 0 0 0 0 0 0 0 0 0 0 0 0 0 0 0 0 0 0 0 0 0 0 0 0 0 0 0 0 0 0 0 0 0 0 0 0 1 2 2 1 1 1 1 0 0
0 0 0 0 0 0 0 0 0 0 0 -0 -0 -0 -0 -0 0 0 0 0 0 0 0 0 0 0 0 0 0 0 0 0 0 0 0 0 0 0 0 0 0 2 3 3 2 1 1 0 0
0 0 0 0 0 0 0 0 0 0 0 0 0 0 0 0 0 0 0 0 0 0 0 0 0 0 0 0 0 0 0 0 0 0 0 0 0 0 0 0 0 0 3 4 3 2 -0 0 1
0 0 0 0 0 0 0 0 0 0 0 0 0 0 0 0 0 0 0 0 0 0 0 0 0 0 0 0 0 0 0 0 0 0 0 0 0 0 0 0 0 0 0 0 6 6 5 2 1
0 0 0 0 0 0 0 0 0 0 0 0 0 0 0 0 0 0 0 0 0 0 0 0 0 0 0 0 0 0 0 0 0 0 0 0 0 0 0 0 0 0 0 0 1 2 2 2 1
0 0 0 0 0 0 0 0 0 0 0 0 0 0 0 0 0 0 0 0 0 0 0 0 0 0 0 0 0 0 0 0 0 0 0 0 0 0 0 0 0 0 0 0 0 0 1 2 2
0 0 0 0 0 0 0 0 0 0 0 0 0 0 0 0 0 0 0 0 0 0 0 0 0 0 0 0 0 0 0 0 0 0 0 0 0 0 0 0 0 0 0 0 0 0 0 0 1
0 0 0 0 0 0 0 0 0 -0 0 0 0 0 0 0 0 0 0 0 0 0 0 0 0 0 0 0 0 0 0 0 0 0 0 0 0 0 0 0 0 0 0 0 0 0 0 0 0
Wind_Speed_500mb
19 18 12 6 5 8 8 11 3 19 13 22 22 44 14 13 9 10 21 46 39 57 65 70 68 66 65 62 59 57 56 55 52 49 46 42 39 36 32 29 28 26 26 25 24 23 21 20 19
22 14 5 2 8 7 10 2 13 8 34 16 29 42 42 11 38 19 42 35 46 54 66 72 70 68 67 65 60 57 54 51 48 45 42 40 37 34 30 28 25 22 21 20 19 18 17 16 15
22 14 4 7 6 10 7 3 12 32 47 52 11 21 10 7 22 13 32 38 52 58 67 72 72 68 66 64 58 54 51 49 46 44 40 37 35 32 28 25 23 20 17 15 14 13 11 11 10
16 3 2 7 13 12 5 16 11 17 32 68 38 14 40 22 9 15 29 31 49 58 67 72 73 69 66 61 57 52 49 46 43 41 39 36 33 30 27 23 20 18 15 12 9 7 6 6 4
9 2 5 0 12 12 11 13 3 12 20 33 26 17 32 24 15 15 17 31 34 48 66 71 73 71 67 62 58 53 49 45 42 40 37 34 31 29 26 22 18 16 13 10 7 5 2 3 3
3 2 5 5 10 14 11 38 22 6 18 25 18 14 17 40 15 13 11 32 34 42 65 72 74 71 66 63 59 53 47 43 41 38 35 32 30 27 25 21 18 14 12 9 6 3 5 6 6
7 7 9 7 10 16 10 35 44 40 20 48 8 4 13 35 35 17 17 30 35 41 64 75 77 73 67 61 57 53 47 41 39 37 35 32 28 25 22 19 16 13 11 8 5 5 7 9 9
6 8 6 7 8 16 8 33 30 35 46 57 26 10 5 18 25 13 16 17 44 48 63 73 75 74 69 64 58 54 50 45 40 37 35 32 28 24 20 16 13 11 10 8 7 9 9 11 11
8 5 8 10 8 18 21 11 41 32 47 50 16 38 36 23 8 22 30 24 37 55 65 71 74 74 71 65 61 55 52 48 43 39 36 34 30 25 20 16 13 12 13 13 12 13 14 18 17
11 8 13 12 9 17 53 16 43 13 26 35 64 30 30 23 16 23 35 24 34 55 57 67 73 75 72 67 63 59 54 52 47 43 40 36 32 27 23 19 17 17 18 18 17 17 19 22 22
11 11 8 22 40 53 59 39 53 21 18 46 58 47 34 24 22 11 36 31 22 38 51 51 67 72 75 73 65 59 57 52 50 46 44 40 36 33 29 24 21 16 16 14 12 16 19 26 24
9 21 35 41 56 53 26 65 36 27 28 42 58 69 38 35 36 32 25 34 27 21 38 48 51 67 71 71 70 64 56 52 50 50 47 45 41 38 33 30 24 20 16 13 9 13 15 21 23
12 15 47 65 64 62 65 51 41 47 49 32 36 28 20 28 36 32 32 23 19 26 23 50 50 48 60 66 69 66 59 53 50 48 49 48 45 42 38 36 33 26 18 17 15 18 17 20 24
25 30 32 31 42 46 31 47 42 57 33 32 47 40 38 32 28 27 29 33 22 17 20 35 49 30 33 43 50 53 51 42 35 40 50 48 46 44 42 39 38 31 23 20 22 25 29 29 34
16 10 15 10 14 11 22 17 20 44 14 21 37 42 38 37 37 42 34 32 32 21 22 31 36 39 33 37 38 38 36 43 44 36 32 41 40 41 40 40 43 35 28 28 32 32 33 37 42
10 5 5 12 9 17 9 27 27 49 41 29 38 56 55 47 46 47 52 45 40 43 28 24 37 41 38 35 34 36 32 31 45 46 37 35 32 32 33 34 34 29 32 33 37 40 44 49 47
8 9 12 16 15 12 9 29 18 48 52 41 40 61 57 49 49 60 59 58 48 55 52 40 30 43 48 36 36 41 28 34 38 43 44 43 38 35 35 36 37 34 37 38 40 45 46 51 49
12 8 12 12 12 3 16 23 25 48 49 62 59 63 62 64 69 70 71 63 56 61 55 55 43 47 47 43 63 43 37 32 43 42 36 40 45 45 43 44 45 44 42 38 36 38 42 50 48
14 14 21 20 11 2 11 18 24 34 43 50 58 43 59 63 67 78 66 68 68 65 66 63 61 57 60 58 49 69 69 71 41 41 50 53 47 50 49 54 54 45 48 39 35 34 33 40 42
22 20 13 12 9 9 17 22 29 12 18 30 43 32 25 24 44 73 71 69 70 63 70 66 65 59 57 55 53 57 53 70 75 64 54 46 48 60 70 60 55 47 55 52 41 32 37 38 37
18 11 8 11 10 9 10 15 17 14 15 28 27 26 29 29 43 65 68 70 74 75 73 67 67 64 52 54 64 59 51 38 59 66 68 50 58 50 51 52 49 43 52 50 56 44 40 38 43
8 10 10 13 4 6 9 14 17 13 15 13 36 40 41 38 53 65 77 78 78 73 64 57 51 49 52 54 50 50 54 52 57 61 56 63 67 63 58 59 55 57 56 56 54 50 49 40 43
16 15 11 7 8 4 2 4 20 13 25 21 22 54 59 54 51 75 85 82 72 64 59 52 46 43 42 39 40 44 49 48 47 51 56 62 64 84 54 68 68 76 64 62 61 60 75 70 61
14 6 5 5 3 11 12 12 28 25 15 13 13 45 63 80 64 66 93 90 70 56 46 36 32 32 34 36 38 42 45 46 51 55 56 52 51 56 60 75 75 65 74 64 59 58 66 75 81
6 8 10 10 9 27 11 10 27 24 16 23 13 45 70 74 66 72 90 77 67 51 34 29 27 25 25 26 31 36 36 40 43 44 46 52 55 55 66 76 74 58 53 68 73 87 82 91 98
17 17 15 16 12 22 3 13 15 16 28 25 17 57 53 52 60 78 89 80 59 41 34 31 31 31 30 25 28 33 33 35 37 39 39 41 42 44 40 42 47 61 52 52 42 60 68 95 92
6 3 11 3 5 6 8 15 21 24 19 11 13 42 39 29 53 81 75 58 41 42 42 38 39 44 49 45 41 38 33 32 35 32 31 34 34 34 41 43 46 47 51 50 48 48 51 66 76
10 7 2 4 8 12 13 19 19 16 10 17 11 15 34 50 19 46 44 44 50 50 45 43 44 46 47 52 47 39 33 35 36 33 33 37 35 40 46 45 46 48 48 47 47 54 58 57 62
6 4 9 8 7 4 6 11 9 5 6 5 4 23 26 10 23 38 25 55 52 42 35 42 50 50 55 55 50 42 41 44 44 44 41 41 43 43 48 50 48 44 47 50 52 53 55 60 66
2 5 9 8 7 5 7 12 27 11 14 15 18 5 10 7 8 20 34 24 38 47 52 60 61 56 58 58 56 52 49 44 46 46 46 42 45 45 45 47 50 52 50 54 55 61 60 61 61
Wind_Direction_500mb
333 334 307 310 69 64 259 258 24 320 333 35 91 105 91 118 145 157 153 161 165 162 162 159 156 152 149 147 145 141 139 137 136 136 135 135 133 127 123 119 114 112 109 107 105 101 98 97 92
337 336 319 250 103 120 259 59 2 306 333 90 105 91 77 82 74 102 155 163 171 165 163 161 158 157 155 153 152 148 145 143 141 139 140 137 133 129 126 121 116 111 106 103 100 97 95 90 86
323 327 336 112 157 184 207 39 342 341 341 347 103 42 65 79 99 127 165 160 168 168 165 163 161 162 162 160 158 155 151 149 148 146 143 140 136 132 129 126 122 116 110 104 98 95 89 83 82
330 35 175 98 244 255 173 268 336 19 350 12 106 40 69 63 69 134 132 147 170 170 168 167 166 167 168 166 164 162 158 158 155 152 149 146 143 139 136 133 129 126 124 119 113 101 92 82 75
322 314 47 63 268 267 295 229 336 78 356 357 57 89 70 64 69 102 156 162 166 175 173 173 172 172 174 172 170 169 167 165 162 159 157 154 151 149 146 145 144 144 142 140 141 136 182 181 194
299 78 70 230 255 285 307 320 253 324 321 333 80 45 65 57 136 170 209 183 181 178 179 179 179 178 179 178 176 175 175 172 170 168 166 164 163 161 158 157 159 162 163 166 159 191 246 271 262
150 93 201 231 274 303 283 342 277 269 276 291 230 108 30 54 61 84 194 179 184 193 188 184 183 183 184 185 184 181 181 182 179 177 176 176 176 173 171 171 174 179 187 193 197 244 261 275 283
222 111 209 209 244 276 303 335 308 200 278 267 255 167 162 59 72 82 155 190 190 193 194 189 188 189 188 189 190 189 188 189 190 188 187 187 187 188 187 190 195 208 224 233 250 274 289 287 285
198 86 215 215 205 260 287 347 305 294 222 236 244 157 150 162 115 87 102 136 176 188 193 193 193 196 196 195 193 195 195 195 195 197 198 200 198 198 201 208 220 239 256 269 275 282 293 292 284
171 172 223 217 228 271 286 259 280 293 279 237 226 147 154 166 126 95 83 128 172 184 192 196 196 202 202 202 201 199 200 201 201 202 207 208 209 210 215 218 230 244 257 270 285 295 291 285 289
206 203 222 262 258 262 272 280 280 259 267 249 237 215 200 182 199 155 103 111 165 195 194 198 204 204 207 210 208 208 208 208 208 208 212 215 216 219 224 229 236 240 249 268 290 287 285 283 291
249 265 242 256 258 259 263 279 273 264 264 288 231 211 185 188 196 192 155 132 145 167 198 213 206 212 209 214 217 217 217 216 218 215 217 221 223 226 230 237 242 241 233 248 279 279 281 282 291
179 244 256 257 256 257 260 262 263 256 265 273 240 212 169 175 184 179 200 156 140 181 204 206 214 211 219 217 214 220 223 228 230 234 228 225 230 235 239 243 244 239 235 246 264 282 286 302 314
266 269 267 265 265 265 258 269 266 264 262 250 235 223 223 207 201 186 177 184 175 143 187 205 205 205 207 216 220 215 215 217 226 233 238 238 237 242 248 251 255 253 252 260 270 280 286 293 295
299 298 315 275 261 242 281 287 258 274 257 247 224 219 205 204 207 217 206 195 203 200 170 203 195 184 201 208 212 219 225 224 224 221 228 237 236 243 247 250 253 256 258 267 271 273 284 290 295
340 25 299 288 308 277 163 263 272 278 278 259 260 241 218 220 221 211 222 228 230 235 211 190 204 189 199 209 225 216 222 231 230 224 229 229 227 230 235 245 248 251 256 265 272 276 278 281 285
348 249 276 298 261 264 186 274 250 269 267 266 249 220 218 224 235 228 220 219 219 237 236 225 204 203 209 229 242 249 238 228 226 221 218 239 238 237 245 253 260 260 258 258 261 266 269 272 276
236 241 259 240 287 267 292 275 284 279 270 251 240 230 233 236 235 232 226 226 225 230 229 230 211 198 210 211 214 261 263 253 230 227 230 232 242 241 245 255 262 263 262 263 259 262 266 271 275
233 250 261 277 236 252 254 265 273 275 290 244 245 218 226 229 226 236 231 217 217 221 226 223 226 212 217 221 222 226 222 259 262 231 245 248 245 244 252 260 261 255 258 260 270 275 286 288 280
240 240 252 265 281 298 287 284 287 261 259 239 231 226 224 220 228 222 213 206 209 214 221 215 221 221 217 216 209 211 218 215 216 215 229 256 249 252 255 252 247 249 258 257 253 282 299 286 282
253 223 243 255 292 306 317 292 302 302 283 277 233 244 258 226 213 202 197 201 206 209 215 215 215 222 223 224 227 228 233 224 219 227 219 225 261 256 248 244 250 253 259 266 255 263 293 285 291
234 232 262 290 319 253 79 290 290 289 301 286 284 292 282 228 223 219 205 201 205 208 212 217 215 224 227 225 223 230 235 233 242 235 232 226 247 258 255 260 249 252 256 262 274 276 272 276 292
248 236 237 238 247 92 88 273 270 303 286 269 283 299 296 281 248 228 218 212 207 204 202 206 211 216 223 226 230 235 234 233 236 234 239 245 244 242 250 255 262 262 258 259 260 276 278 284 287
258 227 30 47 113 273 221 183 285 276 263 299 268 301 298 294 272 243 222 205 194 186 185 195 209 221 233 241 243 239 240 238 239 238 234 234 231 234 238 249 257 256 262 261 268 265 272 269 277
251 78 293 294 279 265 258 244 253 278 260 247 299 324 303 280 265 225 203 180 171 171 177 192 203 206 218 233 248 247 248 245 240 239 240 240 244 249 238 246 253 253 259 254 257 258 266 265 260
232 199 220 257 250 276 315 235 254 237 262 275 315 355 310 262 211 196 180 172 172 177 192 192 198 206 212 233 249 263 274 264 258 258 261 259 260 257 260 243 245 247 258 257 261 255 250 259 248
282 238 174 105 48 334 278 292 303 283 286 243 57 26 347 130 156 167 168 173 184 186 195 206 213 217 219 225 239 246 258 266 268 259 272 269 266 269 264 263 263 258 252 255 253 260 256 252 250
163 192 236 90 211 250 239 257 250 301 327 289 119 99 356 5 166 173 187 195 188 191 195 206 220 229 233 231 240 247 254 260 262 259 267 267 274 282 285 277 273 271 267 261 260 254 255 262 253
346 343 76 124 180 203 290 260 243 194 238 295 173 143 144 221 6 5 252 202 196 203 220 230 233 239 236 235 239 239 249 253 254 254 274 286 286 284 293 283 279 282 281 276 271 271 264 259 262
95 156 136 146 241 228 239 269 261 325 290 181 156 169 184 137 283 323 347 316 239 229 233 236 236 240 238 238 235 234 245 256 257 263 270 284 290 292 298 307 303 291 288 285 283 283 281 274 267
Wind_Speed_850mb
19 18 12 6 5 8 8 11 3 19 13 22 22 44 14 13 9 10 21 46 39 57 65 70 68 66 65 62 59 57 56 55 52 49 46 42 39 36 32 29 28 26 26 25 24 23 21 20 19
22 14 5 2 8 7 10 2 13 8 34 16 29 42 42 11 38 19 42 35 46 54 66 72 70 68 67 65 60 57 54 51 48 45 42 40 37 34 30 28 25 22 21 20 19 18 17 16 15
22 14 4 7 6 10 7 3 12 32 47 52 11 21 10 7 22 13 32 38 52 58 67 72 72 68 66 64 58 54 51 49 46 44 40 37 35 32 28 25 23 20 17 15 14 13 11 11 10
16 3 2 7 13 12 5 16 11 17 32 68 38 14 40 22 9 15 29 31 49 58 67 72 73 69 66 61 57 52 49 46 43 41 39 36 33 30 27 23 20 18 15 12 9 7 6 6 4
9 2 5 0 12 12 11 13 3 12 20 33 26 17 32 24 15 15 17 31 34 48 66 71 73 71 67 62 58 53 49 45 42 40 37 34 31 29 26 22 18 16 13 10 7 5 2 3 3
3 2 5 5 10 14 11 38 22 6 18 25 18 14 17 40 15 13 11 32 34 42 65 72 74 71 66 63 59 53 47 43 41 38 35 32 30 27 25 21 18 14 12 9 6 3 5 6 6
7 7 9 7 10 16 10 35 44 40 20 48 8 4 13 35 35 17 17 30 35 41 64 75 77 73 67 61 57 53 47 41 39 37 35 32 28 25 22 19 16 13 11 8 5 5 7 9 9
6 8 6 7 8 16 8 33 30 35 46 57 26 10 5 18 25 13 16 17 44 48 63 73 75 74 69 64 58 54 50 45 40 37 35 32 28 24 20 16 13 11 10 8 7 9 9 11 11
8 5 8 10 8 18 21 11 41 32 47 50 16 38 36 23 8 22 30 24 37 55 65 71 74 74 71 65 61 55 52 48 43 39 36 34 30 25 20 16 13 12 13 13 12 13 14 18 17
11 8 13 12 9 17 53 16 43 13 26 35 64 30 30 23 16 23 35 24 34 55 57 67 73 75 72 67 63 59 54 52 47 43 40 36 32 27 23 19 17 17 18 18 17 17 19 22 22
11 11 8 22 40 53 59 39 53 21 18 46 58 47 34 24 22 11 36 31 22 38 51 51 67 72 75 73 65 59 57 52 50 46 44 40 36 33 29 24 21 16 16 14 12 16 19 26 24
9 21 35 41 56 53 26 65 36 27 28 42 58 69 38 35 36 32 25 34 27 21 38 48 51 67 71 71 70 64 56 52 50 50 47 45 41 38 33 30 24 20 16 13 9 13 15 21 23
12 15 47 65 64 62 65 51 41 47 49 32 36 28 20 28 36 32 32 23 19 26 23 50 50 48 60 66 69 66 59 53 50 48 49 48 45 42 38 36 33 26 18 17 15 18 17 20 24
25 30 32 31 42 46 31 47 42 57 33 32 47 40 38 32 28 27 29 33 22 17 20 35 49 30 33 43 50 53 51 42 35 40 50 48 46 44 42 39 38 31 23 20 22 25 29 29 34
16 10 15 10 14 11 22 17 20 44 14 21 37 42 38 37 37 42 34 32 32 21 22 31 36 39 33 37 38 38 36 43 44 36 32 41 40 41 40 40 43 35 28 28 32 32 33 37 42
10 5 5 12 9 17 9 27 27 49 41 29 38 56 55 47 46 47 52 45 40 43 28 24 37 41 38 35 34 36 32 31 45 46 37 35 32 32 33 34 34 29 32 33 37 40 44 49 47
8 9 12 16 15 12 9 29 18 48 52 41 40 61 57 49 49 60 59 58 48 55 52 40 30 43 48 36 36 41 28 34 38 43 44 43 38 35 35 36 37 34 37 38 40 45 46 51 49
12 8 12 12 12 3 16 23 25 48 49 62 59 63 62 64 69 70 71 63 56 61 55 55 43 47 47 43 63 43 37 32 43 42 36 40 45 45 43 44 45 44 42 38 36 38 42 50 48
14 14 21 20 11 2 11 18 24 34 43 50 58 43 59 63 67 78 66 68 68 65 66 63 61 57 60 58 49 69 69 71 41 41 50 53 47 50 49 54 54 45 48 39 35 34 33 40 42
22 20 13 12 9 9 17 22 29 12 18 30 43 32 25 24 44 73 71 69 70 63 70 66 65 59 57 55 53 57 53 70 75 64 54 46 48 60 70 60 55 47 55 52 41 32 37 38 37
18 11 8 11 10 9 10 15 17 14 15 28 27 26 29 29 43 65 68 70 74 75 73 67 67 64 52 54 64 59 51 38 59 66 68 50 58 50 51 52 49 43 52 50 56 44 40 38 43
8 10 10 13 4 6 9 14 17 13 15 13 36 40 41 38 53 65 77 78 78 73 64 57 51 49 52 54 50 50 54 52 57 61 56 63 67 63 58 59 55 57 56 56 54 50 49 40 43
16 15 11 7 8 4 2 4 20 13 25 21 22 54 59 54 51 75 85 82 72 64 59 52 46 43 42 39 40 44 49 48 47 51 56 62 64 84 54 68 68 76 64 62 61 60 75 70 61
14 6 5 5 3 11 12 12 28 25 15 13 13 45 63 80 64 66 93 90 70 56 46 36 32 32 34 36 38 42 45 46 51 55 56 52 51 56 60 75 75 65 74 64 59 58 66 75 81
6 8 10 10 9 27 11 10 27 24 16 23 13 45 70 74 66 72 90 77 67 51 34 29 27 25 25 26 31 36 36 40 43 44 46 52 55 55 66 76 74 58 53 68 73 87 82 91 98
17 17 15 16 12 22 3 13 15 16 28 25 17 57 53 52 60 78 89 80 59 41 34 31 31 31 30 25 28 33 33 35 37 39 39 41 42 44 40 42 47 61 52 52 42 60 68 95 92
6 3 11 3 5 6 8 15 21 24 19 11 13 42 39 29 53 81 75 58 41 42 42 38 39 44 49 45 41 38 33 32 35 32 31 34 34 34 41 43 46 47 51 50 48 48 51 66 76
10 7 2 4 8 12 13 19 19 16 10 17 11 15 34 50 19 46 44 44 50 50 45 43 44 46 47 52 47 39 33 35 36 33 33 37 35 40 46 45 46 48 48 47 47 54 58 57 62
6 4 9 8 7 4 6 11 9 5 6 5 4 23 26 10 23 38 25 55 52 42 35 42 50 50 55 55 50 42 41 44 44 44 41 41 43 43 48 50 48 44 47 50 52 53 55 60 66
2 5 9 8 7 5 7 12 27 11 14 15 18 5 10 7 8 20 34 24 38 47 52 60 61 56 58 58 56 52 49 44 46 46 46 42 45 45 45 47 50 52 50 54 55 61 60 61 61
Wind_Direction_850mb
333 334 307 310 69 64 259 258 24 320 333 35 91 105 91 118 145 157 153 161 165 162 162 159 156 152 149 147 145 141 139 137 136 136 135 135 133 127 123 119 114 112 109 107 105 101 98 97 92
337 336 319 250 103 120 259 59 2 306 333 90 105 91 77 82 74 102 155 163 171 165 163 161 158 157 155 153 152 148 145 143 141 139 140 137 133 129 126 121 116 111 106 103 100 97 95 90 86
323 327 336 112 157 184 207 39 342 341 341 347 103 42 65 79 99 127 165 160 168 168 165 163 161 162 162 160 158 155 151 149 148 146 143 140 136 132 129 126 122 116 110 104 98 95 89 83 82
330 35 175 98 244 255 173 268 336 19 350 12 106 40 69 63 69 134 132 147 170 170 168 167 166 167 168 166 164 162 158 158 155 152 149 146 143 139 136 133 129 126 124 119 113 101 92 82 75
322 314 47 63 268 267 295 229 336 78 356 357 57 89 70 64 69 102 156 162 166 175 173 173 172 172 174 172 170 169 167 165 162 159 157 154 151 149 146 145 144 144 142 140 141 136 182 181 194
299 78 70 230 255 285 307 320 253 324 321 333 80 45 65 57 136 170 209 183 181 178 179 179 179 178 179 178 176 175 175 172 170 168 166 164 163 161 158 157 159 162 163 166 159 191 246 271 262
150 93 201 231 274 303 283 342 277 269 276 291 230 108 30 54 61 84 194 179 184 193 188 184 183 183 184 185 184 181 181 182 179 177 176 176 176 173 171 171 174 179 187 193 197 244 261 275 283
222 111 209 209 244 276 303 335 308 200 278 267 255 167 162 59 72 82 155 190 190 193 194 189 188 189 188 189 190 189 188 189 190 188 187 187 187 188 187 190 195 208 224 233 250 274 289 287 285
198 86 215 215 205 260 287 347 305 294 222 236 244 157 150 162 115 87 102 136 176 188 193 193 193 196 196 195 193 195 195 195 195 197 198 200 198 198 201 208 220 239 256 269 275 282 293 292 284
171 172 223 217 228 271 286 259 280 293 279 237 226 147 154 166 126 95 83 128 172 184 192 196 196 202 202 202 201 199 200 201 201 202 207 208 209 210 215 218 230 244 257 270 285 295 291 285 289
206 203 222 262 258 262 272 280 280 259 267 249 237 215 200 182 199 155 103 111 165 195 194 198 204 204 207 210 208 208 208 208 208 208 212 215 216 219 224 229 236 240 249 268 290 287 285 283 291
249 265 242 256 258 259 263 279 273 264 264 288 231 211 185 188 196 192 155 132 145 167 198 213 206 212 209 214 217 217 217 216 218 215 217 221 223 226 230 237 242 241 233 248 279 279 281 282 291
179 244 256 257 256 257 260 262 263 256 265 273 240 212 169 175 184 179 200 156 140 181 204 206 214 211 219 217 214 220 223 228 230 234 228 225 230 235 239 243 244 239 235 246 264 282 286 302 314
266 269 267 265 265 265 258 269 266 264 262 250 235 223 223 207 201 186 177 184 175 143 187 205 205 205 207 216 220 215 215 217 226 233 238 238 237 242 248 251 255 253 252 260 270 280 286 293 295
299 298 315 275 261 242 281 287 258 274 257 247 224 219 205 204 207 217 206 195 203 200 170 203 195 184 201 208 212 219 225 224 224 221 228 237 236 243 247 250 253 256 258 267 271 273 284 290 295
340 25 299 288 308 277 163 263 272 278 278 259 260 241 218 220 221 211 222 228 230 235 211 190 204 189 199 209 225 216 222 231 230 224 229 229 227 230 235 245 248 251 256 265 272 276 278 281 285
348 249 276 298 261 264 186 274 250 269 267 266 249 220 218 224 235 228 220 219 219 237 236 225 204 203 209 229 242 249 238 228 226 221 218 239 238 237 245 253 260 260 258 258 261 266 269 272 276
236 241 259 240 287 267 292 275 284 279 270 251 240 230 233 236 235 232 226 226 225 230 229 230 211 198 210 211 214 261 263 253 230 227 230 232 242 241 245 255 262 263 262 263 259 262 266 271 275
233 250 261 277 236 252 254 265 273 275 290 244 245 218 226 229 226 236 231 217 217 221 226 223 226 212 217 221 222 226 222 259 262 231 245 248 245 244 252 260 261 255 258 260 270 275 286 288 280
240 240 252 265 281 298 287 284 287 261 259 239 231 226 224 220 228 222 213 206 209 214 221 215 221 221 217 216 209 211 218 215 216 215 229 256 249 252 255 252 247 249 258 257 253 282 299 286 282
253 223 243 255 292 306 317 292 302 302 283 277 233 244 258 226 213 202 197 201 206 209 215 215 215 222 223 224 227 228 233 224 219 227 219 225 261 256 248 244 250 253 259 266 255 263 293 285 291
234 232 262 290 319 253 79 290 290 289 301 286 284 292 282 228 223 219 205 201 205 208 212 217 215 224 227 225 223 230 235 233 242 235 232 226 247 258 255 260 249 252 256 262 274 276 272 276 292
248 236 237 238 247 92 88 273 270 303 286 269 283 299 296 281 248 228 218 212 207 204 202 206 211 216 223 226 230 235 234 233 236 234 239 245 244 242 250 255 262 262 258 259 260 276 278 284 287
258 227 30 47 113 273 221 183 285 276 263 299 268 301 298 294 272 243 222 205 194 186 185 195 209 221 233 241 243 239 240 238 239 238 234 234 231 234 238 249 257 256 262 261 268 265 272 269 277
251 78 293 294 279 265 258 244 253 278 260 247 299 324 303 280 265 225 203 180 171 171 177 192 203 206 218 233 248 247 248 245 240 239 240 240 244 249 238 246 253 253 259 254 257 258 266 265 260
232 199 220 257 250 276 315 235 254 237 262 275 315 355 310 262 211 196 180 172 172 177 192 192 198 206 212 233 249 263 274 264 258 258 261 259 260 257 260 243 245 247 258 257 261 255 250 259 248
282 238 174 105 48 334 278 292 303 283 286 243 57 26 347 130 156 167 168 173 184 186 195 206 213 217 219 225 239 246 258 266 268 259 272 269 266 269 264 263 263 258 252 255 253 260 256 252 250
163 192 236 90 211 250 239 257 250 301 327 289 119 99 356 5 166 173 187 195 188 191 195 206 220 229 233 231 240 247 254 260 262 259 267 267 274 282 285 277 273 271 267 261 260 254 255 262 253
346 343 76 124 180 203 290 260 243 194 238 295 173 143 144 221 6 5 252 202 196 203 220 230 233 239 236 235 239 239 249 253 254 254 274 286 286 284 293 283 279 282 281 276 271 271 264 259 262
95 156 136 146 241 228 239 269 261 325 290 181 156 169 184 137 283 323 347 316 239 229 233 236 236 240 238 238 235 234 245 256 257 263 270 284 290 292 298 307 303 291 288 285 283 283 281 274 267